Weather History for Washington, MO

Change the Weather History Date:

Wednesday, July 24, 2013

  Actual Average (KSTL) Record (KSTL)
Temperature  
Mean Temperature 71 °F 80 °F  
Max Temperature 78 °F 89 °F 111 °F (1934)
Min Temperature 62 °F 71 °F 57 °F (1876)
Degree Days  
Heating Degree Days 0 0  
Month to date heating degree days 0  
Since 1 June heating degree days 5  
Since 1 July heating degree days 0  
Cooling Degree Days 6 15  
Month to date cooling degree days 360  
Year to date cooling degree days 868  
Since 1 June cooling degree days 694  
Growing Degree Days 21 (Base 50)    
Moisture  
Dew Point 60 °F    
Average Humidity 67    
Maximum Humidity 88    
Minimum Humidity 47    
Precipitation  
Precipitation 0.00 in 0.13 in 1.62 in (1900)
Month to date precipitation 3.22  
Year to date precipitation 23.87  
Snow  
Snow 0.00 in 0.00 in 0.00 in (2013)
Month to date snowfall 0.0  
Since 1 June snowfall 0.0  
Since 1 July snowfall 0.0  
Snow Depth -    
Sea Level Pressure  
Sea Level Pressure 29.98 in    
Wind  
Wind Speed 2 mph (NE)    
Max Wind Speed 8 mph    
Max Gust Speed 17 mph    
Visibility 10 miles    
Events      
T = Trace of Precipitation, MM = Missing Value Source: NWS Daily Summary

Daily Weather History Graph

Daily Weather History Graph

Search for Another Location

Airport:

Trip Planner

Search our weather history database for the weather conditions in past years. The results will help you decide how hot, cold, wet, or windy it might be!

Date:

Astronomy

Jul. 24, 2013 Rise Set
Actual Time 5:59 AM CDT 8:21 PM CDT
Civil Twilight 5:28 AM CDT 8:51 PM CDT
Nautical Twilight 4:51 AM CDT 9:28 PM CDT
Astronomical Twilight 4:10 AM CDT 10:09 PM CDT
Moon 9:30 PM CDT (7/24) 8:17 AM CDT (7/24)
Length of Visible Light 15h 22m
Length of Day
14h 22m
Waning Gibbous, 94% of the Moon is Illuminated
Jul 24
Waning Gibbous
Jul 29
Last Quarter
Aug 6
New
Aug 14
First Quarter
Aug 20
Full

Hourly Weather History & Observations

Time (CDT) Temp. Dew Point Humidity Pressure Visibility Wind Dir Wind Speed Gust Speed Precip Events Conditions
12:15 AM 73.4 °F 64.4 °F 73% 29.92 in 10.0 mi Calm Calm - N/A   Overcast
12:35 AM 73.4 °F 64.4 °F 73% 29.92 in 10.0 mi NE 3.5 mph - N/A   Overcast
12:55 AM 73.4 °F 64.4 °F 73% 29.92 in 10.0 mi Calm Calm - N/A   Overcast
1:15 AM 73.4 °F 64.4 °F 73% 29.92 in 10.0 mi Calm Calm - N/A   Overcast
1:35 AM 73.4 °F 64.4 °F 73% 29.92 in 10.0 mi Calm Calm - N/A   Overcast
1:55 AM 71.6 °F 62.6 °F 73% 29.93 in 10.0 mi Calm Calm - N/A   Overcast
2:15 AM 71.6 °F 62.6 °F 73% 29.93 in 10.0 mi Calm Calm - N/A   Overcast
2:35 AM 71.6 °F 62.6 °F 73% 29.92 in 10.0 mi Calm Calm - N/A   Overcast
2:55 AM 69.8 °F 64.4 °F 83% 29.93 in 10.0 mi Calm Calm - N/A   Overcast
3:15 AM 69.8 °F 64.4 °F 83% 29.92 in 10.0 mi Calm Calm - N/A   Overcast
3:35 AM 69.8 °F 64.4 °F 83% 29.92 in 10.0 mi Calm Calm - N/A   Overcast
3:55 AM 68.0 °F 64.4 °F 88% 29.91 in 10.0 mi Calm Calm - N/A   Mostly Cloudy
4:15 AM 68.0 °F 62.6 °F 83% 29.91 in 10.0 mi Calm Calm - N/A   Mostly Cloudy
4:35 AM 68.0 °F 62.6 °F 83% 29.92 in 10.0 mi Calm Calm - N/A   Mostly Cloudy
4:55 AM 68.0 °F 62.6 °F 83% 29.94 in 10.0 mi Calm Calm - N/A   Mostly Cloudy
5:15 AM 68.0 °F 62.6 °F 83% 29.94 in 10.0 mi Calm Calm - N/A   Overcast
5:35 AM 68.0 °F 62.6 °F 83% 29.94 in 10.0 mi Calm Calm - N/A   Overcast
5:55 AM 68.0 °F 62.6 °F 83% 29.94 in 10.0 mi Calm Calm - N/A   Mostly Cloudy
6:15 AM 66.2 °F 62.6 °F 88% 29.95 in 10.0 mi Calm Calm - N/A   Partly Cloudy
6:35 AM 66.2 °F 62.6 °F 88% 29.96 in 10.0 mi Calm Calm - N/A   Partly Cloudy
6:55 AM 66.2 °F 62.6 °F 88% 29.96 in 10.0 mi ENE 4.6 mph - N/A   Clear
7:15 AM 66.2 °F 62.6 °F 88% 29.96 in 10.0 mi NE 3.5 mph - N/A   Clear
7:35 AM 68.0 °F 62.6 °F 83% 29.97 in 10.0 mi Calm Calm - N/A   Clear
7:55 AM 68.0 °F 62.6 °F 83% 29.97 in 10.0 mi Calm Calm - N/A   Clear
8:15 AM 68.0 °F 60.8 °F 78% 29.98 in 10.0 mi NE 4.6 mph - N/A   Clear
8:35 AM 68.0 °F 60.8 °F 78% 29.98 in 10.0 mi ENE 3.5 mph - N/A   Clear
8:55 AM 69.8 °F 60.8 °F 73% 29.98 in 10.0 mi NNE 5.8 mph - N/A   Clear
9:15 AM 71.6 °F 59.0 °F 64% 29.99 in 10.0 mi Calm Calm - N/A   Clear
9:35 AM 71.6 °F 59.0 °F 64% 29.99 in 10.0 mi Calm Calm - N/A   Clear
9:55 AM 71.6 °F 57.2 °F 60% 30.00 in 10.0 mi NNE 5.8 mph - N/A   Clear
10:15 AM 71.6 °F 57.2 °F 60% 30.01 in 10.0 mi ESE 5.8 mph - N/A   Clear
10:35 AM 71.6 °F 57.2 °F 60% 30.01 in 10.0 mi Calm Calm - N/A   Clear
10:55 AM 73.4 °F 55.4 °F 53% 30.00 in 10.0 mi North 6.9 mph - N/A   Clear
11:15 AM 73.4 °F 57.2 °F 57% 30.00 in 10.0 mi SE 4.6 mph - N/A   Clear
11:35 AM 73.4 °F 57.2 °F 57% 30.01 in 10.0 mi NNE 5.8 mph - N/A   Clear
11:55 AM 75.2 °F 57.2 °F 53% 30.01 in 10.0 mi NNE 5.8 mph - N/A   Clear
12:15 PM 75.2 °F 55.4 °F 50% 30.02 in 10.0 mi East 6.9 mph - N/A   Clear
12:35 PM 75.2 °F 57.2 °F 53% 30.02 in 10.0 mi NNE 8.1 mph - N/A   Clear
12:55 PM 75.2 °F 57.2 °F 53% 30.02 in 10.0 mi East 5.8 mph - N/A   Clear
1:15 PM 75.2 °F 57.2 °F 53% 30.02 in 10.0 mi NE 3.5 mph - N/A   Clear
1:35 PM 77.0 °F 55.4 °F 47% 30.02 in 10.0 mi ENE 4.6 mph - N/A   Clear
1:55 PM 77.0 °F 57.2 °F 50% 30.01 in 10.0 mi North 6.9 mph - N/A   Clear
2:15 PM 77.0 °F 57.2 °F 50% 30.01 in 10.0 mi Calm Calm - N/A   Clear
2:35 PM 77.0 °F 57.2 °F 50% 30.01 in 10.0 mi North 8.1 mph 17.3 mph N/A   Clear
2:55 PM 77.0 °F 55.4 °F 47% 30.00 in 10.0 mi Calm Calm - N/A   Clear
3:15 PM 77.0 °F 57.2 °F 50% 30.00 in 10.0 mi North 6.9 mph - N/A   Clear
3:35 PM 77.0 °F 55.4 °F 47% 30.00 in 10.0 mi North 6.9 mph - N/A   Clear
3:55 PM 77.0 °F 55.4 °F 47% 30.00 in 10.0 mi East 6.9 mph - N/A   Clear
4:15 PM 77.0 °F 57.2 °F 50% 30.00 in 10.0 mi NNE 5.8 mph - N/A   Clear
4:35 PM 77.0 °F 55.4 °F 47% 29.99 in 10.0 mi East 5.8 mph - N/A   Clear
4:55 PM 77.0 °F 57.2 °F 50% 30.00 in 10.0 mi ENE 4.6 mph - N/A   Clear
5:15 PM 77.0 °F 57.2 °F 50% 30.00 in 10.0 mi NNE 4.6 mph - N/A   Clear
5:35 PM 78.8 °F 57.2 °F 47% 30.00 in 10.0 mi NE 6.9 mph - N/A   Clear
5:55 PM 77.0 °F 57.2 °F 50% 30.00 in 10.0 mi NNE 4.6 mph - N/A   Clear
6:15 PM 77.0 °F 57.2 °F 50% 29.99 in 10.0 mi NE 4.6 mph - N/A   Clear
6:35 PM 77.0 °F 57.2 °F 50% 29.99 in 10.0 mi North 4.6 mph - N/A   Clear
6:55 PM 77.0 °F 57.2 °F 50% 29.99 in 10.0 mi Calm Calm - N/A   Clear
7:15 PM 77.0 °F 57.2 °F 50% 30.00 in 10.0 mi Calm Calm - N/A   Clear
7:35 PM 75.2 °F 57.2 °F 53% 30.00 in 10.0 mi Calm Calm - N/A   Clear
7:55 PM 75.2 °F 57.2 °F 53% 30.00 in 10.0 mi Calm Calm - N/A   Clear
8:15 PM 73.4 °F 59.0 °F 61% 30.00 in 10.0 mi Calm Calm - N/A   Clear
8:35 PM 71.6 °F 59.0 °F 64% 30.00 in 10.0 mi Calm Calm - N/A   Clear
8:55 PM 68.0 °F 59.0 °F 73% 30.00 in 10.0 mi Calm Calm - N/A   Clear
9:15 PM 68.0 °F 59.0 °F 73% 30.01 in 10.0 mi Calm Calm - N/A   Clear
9:35 PM 66.2 °F 59.0 °F 78% 30.02 in 10.0 mi Calm Calm - N/A   Clear
9:55 PM 66.2 °F 59.0 °F 78% 30.03 in 10.0 mi Calm Calm - N/A   Clear
10:15 PM 66.2 °F 59.0 °F 78% 30.03 in 10.0 mi Calm Calm - N/A   Clear
10:35 PM 66.2 °F 59.0 °F 78% 30.03 in 10.0 mi Calm Calm - N/A   Clear
10:55 PM 66.2 °F 57.2 °F 73% 30.03 in 10.0 mi Calm Calm - N/A   Clear
11:15 PM 64.4 °F 59.0 °F 83% 30.03 in 10.0 mi Calm Calm - N/A   Clear
11:35 PM 64.4 °F 59.0 °F 83% 30.04 in 10.0 mi Calm Calm - N/A   Clear
11:55 PM 62.6 °F 59.0 °F 88% 30.04 in 10.0 mi Calm Calm - N/A   Clear